Dundee, United Kingdom

9:57 AM BST on March 26, 2017 (GMT +0100)
Dundee

Weather History for EGPN - November, 2012

Change the Weather History Date:

Monday, November 5, 2012

  Actual Average Record
Temperature  
Mean Temperature 39 °F -  
Max Temperature 46 °F 46 °F 57 °F (2003)
Min Temperature 32 °F 39 °F 28 °F (2013)
Degree Days  
Heating Degree Days 26    
Moisture  
Dew Point 34 °F    
Average Humidity 82    
Maximum Humidity 93    
Minimum Humidity 66    
Precipitation  
Precipitation 0.00 in - - ()
Sea Level Pressure  
Sea Level Pressure 29.81 in    
Wind  
Wind Speed 7 mph ()    
Max Wind Speed 12 mph    
Max Gust Speed -    
Visibility 6.2 miles    
Events      
Averages and records for this station are not official NWS values.
T = Trace of Precipitation, MM = Missing Value Source: Averaged Metar Reports

Daily Weather History Graph

Daily Weather History Graph

Search for Another Location

Airport or City:

Trip Planner

Search our weather history database for the weather conditions in past years. The results will help you decide how hot, cold, wet, or windy it might be!

Date:

Astronomy

Nov. 05, 2012 Rise Set
Actual Time 7:29 AM GMT 4:20 PM GMT
Civil Twilight 6:48 AM GMT 5:01 PM GMT
Nautical Twilight 6:03 AM GMT 5:46 PM GMT
Astronomical Twilight 5:20 AM GMT 6:30 PM GMT
Moon 9:41 PM GMT (11/5) 12:46 PM GMT (11/5)
Length of Visible Light 10h 12m
Length of Day
8h 50m
Waning Gibbous, 65% of the Moon is Illuminated
Nov 5
Waning Gibbous
Nov 7
Last Quarter
Nov 13
New
Nov 20
First Quarter
Nov 28
Full

Hourly Weather History & Observations

Time (GMT) Temp. Windchill Dew Point Humidity Pressure Visibility Wind Dir Wind Speed Gust Speed Precip Events Conditions
6:20 AM 32.0 °F 27.5 °F 30.2 °F 93% 29.68 in 6.2 mi NW 4.6 mph - N/A   Partly Cloudy
6:50 AM 32.0 °F 26.4 °F 30.2 °F 93% 29.71 in 6.2 mi WNW 5.8 mph - N/A   Partly Cloudy
7:20 AM 32.0 °F 25.6 °F 30.2 °F 93% 29.71 in 6.2 mi WNW 6.9 mph - N/A   Partly Cloudy
7:50 AM 32.0 °F 25.6 °F 30.2 °F 93% 29.71 in - WNW 6.9 mph - N/A   Clear
8:50 AM 35.6 °F 29.2 °F 33.8 °F 93% 29.74 in - WNW 8.1 mph - N/A   Clear
9:20 AM 39.2 °F 32.5 °F 35.6 °F 87% 29.74 in - West 10.4 mph - N/A   Clear
9:50 AM 39.2 °F 34.2 °F 35.6 °F 87% 29.74 in - West 6.9 mph - N/A   Clear
10:20 AM 39.2 °F 32.0 °F 35.6 °F 87% 29.77 in - WSW 11.5 mph - N/A   Clear
10:50 AM 41.0 °F 36.4 °F 35.6 °F 81% 29.77 in - West 6.9 mph - N/A   Clear
11:20 AM 42.8 °F 36.6 °F 37.4 °F 81% 29.77 in - WSW 11.5 mph - N/A   Clear
11:50 AM 42.8 °F 37.0 °F 37.4 °F 81% 29.77 in - WSW 10.4 mph - N/A   Clear
12:20 PM 42.8 °F 36.6 °F 37.4 °F 81% 29.77 in - WSW 11.5 mph - N/A   Clear
12:50 PM 44.6 °F 39.2 °F 39.2 °F 81% 29.77 in 6.2 mi WSW 10.4 mph - N/A   Partly Cloudy
1:20 PM 46.4 °F 42.9 °F 39.2 °F 76% 29.77 in 6.2 mi WSW 6.9 mph - N/A   Partly Cloudy
1:50 PM 46.4 °F 42.4 °F 37.4 °F 71% 29.80 in 6.2 mi West 8.1 mph - N/A   Partly Cloudy
2:20 PM 46.4 °F 42.9 °F 37.4 °F 71% 29.80 in 6.2 mi WNW 6.9 mph - N/A   Partly Cloudy
2:50 PM 46.4 °F 41.5 °F 35.6 °F 66% 29.80 in 6.2 mi WNW 10.4 mph - N/A   Partly Cloudy
3:20 PM 46.4 °F 41.9 °F 35.6 °F 66% 29.80 in 6.2 mi WNW 9.2 mph - N/A   Partly Cloudy
3:50 PM 44.6 °F 40.7 °F 35.6 °F 71% 29.83 in 6.2 mi WNW 6.9 mph - N/A   Partly Cloudy
4:20 PM 42.8 °F 38.6 °F 35.6 °F 76% 29.83 in 6.2 mi WNW 6.9 mph - N/A   Partly Cloudy
4:50 PM 42.8 °F 38.6 °F 35.6 °F 76% 29.86 in 6.2 mi NW 6.9 mph - N/A   Partly Cloudy
5:20 PM 41.0 °F 35.8 °F 33.8 °F 76% 29.86 in 6.2 mi WNW 8.1 mph - N/A   Partly Cloudy
5:50 PM 39.2 °F 35.9 °F 33.8 °F 81% 29.89 in 6.2 mi NW 4.6 mph - N/A   Scattered Clouds
6:20 PM 35.6 °F 29.9 °F 32.0 °F 87% 29.89 in 6.2 mi WNW 6.9 mph - N/A   Scattered Clouds
6:50 PM 35.6 °F 32.8 °F 32.0 °F 87% 29.89 in 6.2 mi WNW 3.5 mph - N/A   Scattered Clouds
7:20 PM 35.6 °F 31.7 °F 32.0 °F 87% 29.92 in 6.2 mi NNW 4.6 mph - N/A   Scattered Clouds
7:50 PM 37.4 °F 33.8 °F 32.0 °F 81% 29.92 in 6.2 mi NW 4.6 mph - N/A   Scattered Clouds
8:20 PM 37.4 °F 34.9 °F 32.0 °F 81% 29.92 in 6.2 mi NW 3.5 mph - N/A   Scattered Clouds
8:50 PM 35.6 °F 30.7 °F 30.2 °F 81% 29.92 in 6.2 mi NW 5.8 mph - N/A   Scattered Clouds
9:20 PM 35.6 °F 29.9 °F 30.2 °F 81% 29.92 in 6.2 mi WNW 6.9 mph - N/A   Scattered Clouds
9:50 PM 33.8 °F 28.6 °F 30.2 °F 87% 29.92 in 6.2 mi NW 5.8 mph - N/A   Scattered Clouds